| time (UTC) | temp C | wind direction | speed KPH | gust KPH | rain 1hr cm | rain 24hr cm | rain mn cm | humidity % | barometer mb |
| 20260507164531 | 18 | 0.0 | 0.0 | 0.00 | 0.00 | 0.00 | 23 | 807.2 | |
| 20260507163244 | 18 | 0.0 | 0.0 | 0.00 | 0.00 | 0.00 | 22 | 804.8 | |
| 20260507161556 | 18 | 0.0 | 0.0 | 0.00 | 0.00 | 0.00 | 21 | 802.5 | |
| 20260507160046 | 19 | 0.0 | 0.0 | 0.00 | 0.00 | 0.00 | 19 | 802.4 | |
| 20260507154531 | 20 | 0.0 | 0.0 | 0.00 | 0.00 | 0.00 | 18 | 804.0 | |
| 20260507153019 | 20 | 0.0 | 0.0 | 0.00 | 0.00 | 0.00 | 17 | 806.3 | |
| 20260507151556 | 21 | 0.0 | 0.0 | 0.00 | 0.00 | 0.00 | 15 | 806.2 | |
| 20260507150046 | 22 | 0.0 | 0.0 | 0.00 | 0.00 | 0.00 | 13 | 806.9 | |
| 20260507144532 | 22 | 0.0 | 0.0 | 0.00 | 0.00 | 0.00 | 14 | 806.1 | |
| 20260507143019 | 22 | 0.0 | 0.0 | 0.00 | 0.00 | 0.00 | 14 | 806.1 | |
| 20260507141556 | 22 | 0.0 | 0.0 | 0.00 | 0.00 | 0.00 | 13 | 806.1 | |
| 20260507140046 | 22 | 0.0 | 0.0 | 0.00 | 0.00 | 0.00 | 14 | 806.0 | |
| 20260507134619 | 21 | 0.0 | 0.0 | 0.00 | 0.00 | 0.00 | 14 | 804.5 | |
| 20260507133020 | 22 | 0.0 | 0.0 | 0.00 | 0.00 | 0.00 | 15 | 804.5 | |
| 20260507131556 | 22 | 0.0 | 0.0 | 0.00 | 0.00 | 0.00 | 14 | 806.1 | |
| 20260507130134 | 22 | 0.0 | 0.0 | 0.00 | 0.00 | 0.00 | 14 | 803.1 | |
| 20260507124620 | 22 | 0.0 | 0.0 | 0.00 | 0.00 | 0.00 | 15 | 803.1 | |
| 20260507123019 | 22 | 0.0 | 0.0 | 0.00 | 0.00 | 0.00 | 15 | 804.6 | |
| 20260507121644 | 21 | 0.0 | 0.0 | 0.00 | 0.00 | 0.00 | 16 | 806.3 | |
| 20260507120046 | 21 | 0.0 | 0.0 | 0.00 | 0.00 | 0.00 | 17 | 803.9 | |
| 20260507114620 | 21 | 0.0 | 0.0 | 0.00 | 0.00 | 0.00 | 17 | 804.0 | |
| 20260507113019 | 21 | 0.0 | 0.0 | 0.00 | 0.00 | 0.00 | 19 | 803.2 | |
| 20260507111555 | 21 | 0.0 | 0.0 | 0.00 | 0.00 | 0.00 | 19 | 804.1 | |
| 20260507110046 | 20 | 0.0 | 0.0 | 0.00 | 0.00 | 0.00 | 22 | 804.2 | |
| 20260507104531 | 20 | 0.0 | 0.0 | 0.00 | 0.00 | 0.00 | 23 | 804.2 | |
| 20260507103107 | 19 | 0.0 | 0.0 | 0.00 | 0.00 | 0.00 | 24 | 802.7 | |
| 20260507101556 | 19 | 0.0 | 0.0 | 0.00 | 0.00 | 0.00 | 25 | 803.6 | |
| 20260507100046 | 18 | 0.0 | 0.0 | 0.00 | 0.00 | 0.00 | 28 | 802.7 | |
| 20260507094531 | 18 | 0.0 | 0.0 | 0.00 | 0.00 | 0.00 | 28 | 802.8 | |
| 20260507093019 | 18 | 0.0 | 0.0 | 0.00 | 0.00 | 0.00 | 30 | 802.8 | |
| 20260507091555 | 18 | 0.0 | 0.0 | 0.00 | 0.00 | 0.00 | 31 | 802.0 | |
| 20260507090045 | 17 | 0.0 | 0.0 | 0.00 | 0.00 | 0.00 | 35 | 800.5 | |
| 20260507084531 | 16 | 0.0 | 0.0 | 0.00 | 0.00 | 0.00 | 36 | 800.5 | |
| 20260507083019 | 16 | 0.0 | 0.0 | 0.00 | 0.00 | 0.00 | 35 | 801.1 | |
| 20260507081556 | 16 | 0.0 | 0.0 | 0.00 | 0.00 | 0.00 | 38 | 799.5 | |
| 20260507080222 | 16 | 0.0 | 0.0 | 0.00 | 0.00 | 0.00 | 38 | 799.6 | |
| 20260507074531 | 16 | 0.0 | 0.0 | 0.00 | 0.00 | 0.00 | 39 | 799.6 | |
| 20260507073019 | 15 | 0.0 | 0.0 | 0.00 | 0.00 | 0.00 | 40 | 799.5 | |
| 20260507071555 | 15 | 0.0 | 0.0 | 0.00 | 0.00 | 0.00 | 42 | 801.0 | |
| 20260507070045 | 15 | 0.0 | 0.0 | 0.00 | 0.00 | 0.00 | 42 | 801.0 | |
| 20260507064619 | 15 | 0.0 | 0.0 | 0.00 | 0.00 | 0.00 | 43 | 801.0 | |
| 20260507063019 | 15 | 0.0 | 0.0 | 0.00 | 0.00 | 0.00 | 44 | 801.7 | |
| 20260507061555 | 15 | 0.0 | 0.0 | 0.00 | 0.00 | 0.00 | 46 | 801.6 | |
| 20260507060046 | 15 | 0.0 | 0.0 | 0.00 | 0.00 | 0.00 | 49 | 801.5 | |
| 20260507054531 | 13 | 0.0 | 0.0 | 0.00 | 0.00 | 0.00 | 51 | 800.0 | |
| 20260507053155 | 13 | 0.0 | 0.0 | 0.00 | 0.00 | 0.00 | 52 | 799.1 | |
| 20260507051643 | 13 | 0.0 | 0.0 | 0.00 | 0.00 | 0.00 | 52 | 798.2 | |
| 20260507050134 | 13 | 0.0 | 0.0 | 0.00 | 0.00 | 0.00 | 53 | 798.2 | |
| 20260507044531 | 13 | 0.0 | 0.0 | 0.00 | 0.00 | 0.00 | 53 | 798.9 | |
| 20260507043307 | 12 | 0.0 | 0.0 | 0.00 | 0.00 | 0.00 | 53 | 799.6 | |
| 20260507041807 | 12 | 0.0 | 0.0 | 0.00 | 0.00 | 0.00 | 53 | 800.3 | |
| 20260507040046 | 13 | 0.0 | 0.0 | 0.00 | 0.00 | 0.00 | 52 | 800.2 | |
| 20260507034755 | 13 | 0.0 | 0.0 | 0.00 | 0.00 | 0.00 | 52 | 800.8 | |
| 20260507033018 | 13 | 0.0 | 0.0 | 0.00 | 0.00 | 0.00 | 51 | 802.4 | |
| 20260507031555 | 13 | 0.0 | 0.0 | 0.00 | 0.00 | 0.00 | 51 | 803.1 | |
| 20260507030133 | 13 | 0.0 | 0.0 | 0.00 | 0.00 | 0.00 | 51 | 805.5 | |
| 20260507024531 | 13 | 0.0 | 0.0 | 0.00 | 0.00 | 0.00 | 52 | 807.0 | |
| 20260507023018 | 13 | 0.0 | 0.0 | 0.00 | 0.00 | 0.00 | 51 | 808.4 | |
| 20260507021555 | 13 | 0.0 | 0.0 | 0.00 | 0.00 | 0.00 | 51 | 809.2 | |
| 20260507020045 | 13 | 0.0 | 0.0 | 0.00 | 0.00 | 0.00 | 51 | 810.6 | |
| 20260507014707 | 13 | 0.0 | 0.0 | 0.00 | 0.00 | 0.00 | 52 | 812.7 | |
| 20260507013154 | 13 | 0.0 | 0.0 | 0.00 | 0.00 | 0.00 | 52 | 813.5 | |
| 20260507011555 | 14 | 0.0 | 0.0 | 0.00 | 0.00 | 0.00 | 53 | 814.3 | |
| 20260507010045 | 14 | 0.0 | 0.0 | 0.00 | 0.00 | 0.00 | 53 | 814.1 | |
| 20260507004530 | 14 | 0.0 | 0.0 | 0.00 | 0.00 | 0.00 | 54 | 813.4 | |
| 20260507003019 | 15 | 0.0 | 0.0 | 0.00 | 0.00 | 0.00 | 54 | 814.2 | |
| 20260507001555 | 15 | 0.0 | 0.0 | 0.00 | 0.00 | 0.00 | 54 | 814.1 | |
| 20260507000044 | 15 | 0.0 | 0.0 | 0.00 | 0.00 | 0.00 | 53 | 814.0 | |
| 20260506234531 | 15 | 0.0 | 0.0 | 0.00 | 0.00 | 0.00 | 54 | 813.8 | |
| 20260506233106 | 15 | 0.0 | 0.0 | 0.00 | 0.00 | 0.00 | 53 | 813.7 | |
| 20260506231555 | 15 | 0.0 | 0.0 | 0.00 | 0.00 | 0.00 | 53 | 814.5 | |
| 20260506230221 | 16 | 0.0 | 0.0 | 0.00 | 0.00 | 0.00 | 52 | 813.8 | |
| 20260506224531 | 16 | 0.0 | 0.0 | 0.00 | 0.00 | 0.00 | 53 | 814.4 | |
| 20260506223018 | 16 | 0.0 | 0.0 | 0.00 | 0.00 | 0.00 | 52 | 813.5 | |
| 20260506221555 | 16 | 0.0 | 0.0 | 0.00 | 0.00 | 0.00 | 52 | 814.1 | |
| 20260506220045 | 16 | 0.0 | 0.0 | 0.00 | 0.00 | 0.00 | 46 | 813.4 | |
| 20260506214531 | 17 | 0.0 | 0.0 | 0.00 | 0.00 | 0.00 | 43 | 813.2 | |
| 20260506213018 | 17 | 0.0 | 0.0 | 0.00 | 0.00 | 0.00 | 40 | 813.0 | |
| 20260506211555 | 18 | 0.0 | 0.0 | 0.00 | 0.00 | 0.00 | 37 | 812.8 | |
| 20260506210045 | 18 | 0.0 | 0.0 | 0.00 | 0.00 | 0.00 | 33 | 812.5 | |
| 20260506204530 | 20 | 0.0 | 0.0 | 0.00 | 0.00 | 0.00 | 27 | 812.3 | |
| 20260506203018 | 20 | 0.0 | 0.0 | 0.00 | 0.00 | 0.00 | 24 | 811.4 | |
| 20260506201555 | 20 | 0.0 | 0.0 | 0.00 | 0.00 | 0.00 | 24 | 811.9 | |
| 20260506200058 | 20 | 0.0 | 0.0 | 0.00 | 0.00 | 0.00 | 24 | 811.9 | |
| 20260506194619 | 20 | 0.0 | 0.0 | 0.00 | 0.00 | 0.00 | 23 | 811.0 | |
| 20260506193019 | 20 | 0.0 | 0.0 | 0.00 | 0.00 | 0.00 | 22 | 811.7 | |
| 20260506191643 | 20 | 0.0 | 0.0 | 0.00 | 0.00 | 0.00 | 22 | 811.6 | |
| 20260506190045 | 21 | 0.0 | 0.0 | 0.00 | 0.00 | 0.00 | 21 | 810.7 | |
| 20260506184619 | 21 | 0.0 | 0.0 | 0.00 | 0.00 | 0.00 | 20 | 810.7 | |
| 20260506183107 | 21 | 0.0 | 0.0 | 0.00 | 0.00 | 0.00 | 19 | 810.6 | |
| 20260506181555 | 22 | 0.0 | 0.0 | 0.00 | 0.00 | 0.00 | 18 | 809.8 | |
| 20260506180045 | 22 | 0.0 | 0.0 | 0.00 | 0.00 | 0.00 | 17 | 809.6 | |
| 20260506174530 | 22 | 0.0 | 0.0 | 0.00 | 0.00 | 0.00 | 16 | 807.4 | |
| 20260506173018 | 22 | 0.0 | 0.0 | 0.00 | 0.00 | 0.00 | 16 | 805.9 | |
| 20260506171555 | 23 | 0.0 | 0.0 | 0.00 | 0.00 | 0.00 | 14 | 805.2 | |
| 20260506170045 | 23 | 0.0 | 0.0 | 0.00 | 0.00 | 0.00 | 14 | 803.7 |